Time,TemperatureF,DewpointF,PressureIn,WindDirection,WindDirectionDegrees,WindSpeedMPH,WindSpeedGustMPH,Humidity,HourlyPrecipIn,Conditions,Clouds,dailyrainin,SoftwareType,DateUTC
2013-04-12 00:03:00,38.0,19.0,30.16,ENE,68,0.0,0.0,45,0.00,,,0.02,,2013-04-12 04:03:00,
2013-04-12 00:13:00,38.0,19.0,30.16,ENE,68,0.0,0.0,45,0.00,,,0.02,,2013-04-12 04:13:00,
2013-04-12 00:23:00,38.0,19.0,30.17,NE,45,0.0,0.0,45,0.00,,,0.02,,2013-04-12 04:23:00,
2013-04-12 00:33:00,39.0,19.0,30.18,NE,45,0.0,0.0,44,0.00,,,0.02,,2013-04-12 04:33:00,
2013-04-12 00:43:00,39.0,19.0,30.18,NE,45,0.0,0.0,44,0.00,,,0.02,,2013-04-12 04:43:00,
2013-04-12 00:53:00,38.0,18.0,30.19,NE,45,0.0,0.0,44,0.00,,,0.02,,2013-04-12 04:53:00,
2013-04-12 01:03:00,38.0,19.0,30.20,NE,45,0.0,0.0,45,0.00,,,0.02,,2013-04-12 05:03:00,
2013-04-12 01:12:00,38.0,19.0,30.20,NE,45,0.0,0.0,45,0.00,,,0.02,,2013-04-12 05:12:00,
2013-04-12 01:23:00,38.0,19.0,30.20,NE,45,0.0,0.0,45,0.00,,,0.02,,2013-04-12 05:23:00,
2013-04-12 01:32:00,38.0,20.0,30.20,ENE,68,0.0,0.0,47,0.00,,,0.02,,2013-04-12 05:32:00,
2013-04-12 01:42:00,38.0,20.0,30.20,ENE,68,0.0,0.0,47,0.00,,,0.02,,2013-04-12 05:42:00,
2013-04-12 01:52:00,37.0,18.0,30.20,NE,45,0.0,0.0,46,0.00,,,0.02,,2013-04-12 05:52:00,
2013-04-12 02:02:00,37.0,18.0,30.20,NE,45,0.0,0.0,45,0.00,,,0.02,,2013-04-12 06:02:00,
2013-04-12 02:12:00,37.0,18.0,30.20,NE,45,0.0,0.0,45,0.00,,,0.02,,2013-04-12 06:12:00,
2013-04-12 02:22:00,37.0,18.0,30.20,ENE,68,0.0,0.0,46,0.00,,,0.02,,2013-04-12 06:22:00,
2013-04-12 02:32:00,37.0,19.0,30.20,ENE,68,0.0,0.0,47,0.00,,,0.02,,2013-04-12 06:32:00,
2013-04-12 02:42:00,37.0,19.0,30.20,ENE,68,0.0,0.0,47,0.00,,,0.02,,2013-04-12 06:42:00,
2013-04-12 02:52:00,36.0,19.0,30.20,ENE,68,0.0,0.0,49,0.00,,,0.02,,2013-04-12 06:52:00,
2013-04-12 03:02:00,36.0,17.0,30.20,ENE,68,0.0,0.0,46,0.00,,,0.02,,2013-04-12 07:02:00,
2013-04-12 03:12:00,36.0,17.0,30.20,ENE,68,0.0,0.0,46,0.00,,,0.02,,2013-04-12 07:12:00,
2013-04-12 03:22:00,36.0,18.0,30.20,ENE,68,0.0,0.0,47,0.00,,,0.02,,2013-04-12 07:22:00,
2013-04-12 03:32:00,36.0,19.0,30.21,ENE,68,0.0,0.0,49,0.00,,,0.02,,2013-04-12 07:32:00,
2013-04-12 03:42:00,36.0,19.0,30.21,ENE,68,0.0,0.0,49,0.00,,,0.02,,2013-04-12 07:42:00,
2013-04-12 03:52:00,36.0,20.0,30.22,ENE,68,0.0,0.0,51,0.00,,,0.02,,2013-04-12 07:52:00,
2013-04-12 04:03:00,36.0,19.0,30.21,East,90,0.0,0.0,50,0.00,,,0.02,,2013-04-12 08:03:00,
2013-04-12 04:12:00,36.0,19.0,30.21,East,90,0.0,0.0,50,0.00,,,0.02,,2013-04-12 08:12:00,
2013-04-12 04:22:00,35.0,19.0,30.22,ENE,68,0.0,0.0,52,0.00,,,0.02,,2013-04-12 08:22:00,
2013-04-12 04:32:00,35.0,20.0,30.23,ENE,68,0.0,0.0,53,0.00,,,0.02,,2013-04-12 08:32:00,
2013-04-12 04:42:00,35.0,20.0,30.23,ENE,68,0.0,0.0,53,0.00,,,0.02,,2013-04-12 08:42:00,
2013-04-12 04:52:00,35.0,20.0,30.22,NE,45,0.0,0.0,53,0.00,,,0.02,,2013-04-12 08:52:00,
2013-04-12 05:02:00,35.0,19.0,30.22,ENE,68,0.0,0.0,52,0.00,,,0.02,,2013-04-12 09:02:00,
2013-04-12 05:12:00,35.0,19.0,30.22,ENE,68,0.0,0.0,52,0.00,,,0.02,,2013-04-12 09:12:00,
2013-04-12 05:22:00,35.0,20.0,30.21,ENE,68,0.0,0.0,54,0.00,,,0.02,,2013-04-12 09:22:00,
2013-04-12 05:33:00,35.0,20.0,30.21,ENE,68,0.0,0.0,54,0.00,,,0.02,,2013-04-12 09:33:00,
2013-04-12 05:43:00,35.0,20.0,30.21,ENE,68,0.0,0.0,54,0.00,,,0.02,,2013-04-12 09:43:00,
2013-04-12 05:52:00,35.0,20.0,30.22,East,90,0.0,0.0,55,0.00,,,0.02,,2013-04-12 09:52:00,
2013-04-12 06:03:00,35.0,20.0,30.22,East,90,0.0,0.0,55,0.00,,,0.02,,2013-04-12 10:03:00,
2013-04-12 06:13:00,35.0,20.0,30.24,ENE,68,0.0,0.0,55,0.00,,,0.02,,2013-04-12 10:13:00,
2013-04-12 06:23:00,35.0,20.0,30.24,ENE,68,0.0,0.0,55,0.00,,,0.02,,2013-04-12 10:23:00,
2013-04-12 06:34:00,35.0,20.0,30.24,NE,45,0.0,0.0,55,0.00,,,0.02,,2013-04-12 10:34:00,
2013-04-12 06:42:00,35.0,20.0,30.24,NE,45,0.0,0.0,55,0.00,,,0.02,,2013-04-12 10:42:00,
2013-04-12 06:53:00,35.0,20.0,30.23,ENE,68,0.0,0.0,55,0.00,,,0.02,,2013-04-12 10:53:00,
2013-04-12 07:03:00,35.0,20.0,30.22,ENE,68,0.0,0.0,55,0.00,,,0.02,,2013-04-12 11:03:00,
2013-04-12 07:13:00,35.0,20.0,30.22,ENE,68,0.0,0.0,55,0.00,,,0.02,,2013-04-12 11:13:00,
2013-04-12 07:22:00,35.0,21.0,30.22,ENE,68,0.0,0.0,56,0.00,,,0.02,,2013-04-12 11:22:00,
2013-04-12 07:32:00,35.0,21.0,30.23,East,90,0.0,0.0,57,0.00,,,0.02,,2013-04-12 11:32:00,
2013-04-12 07:42:00,35.0,21.0,30.23,East,90,0.0,0.0,57,0.00,,,0.02,,2013-04-12 11:42:00,
2013-04-12 07:52:00,35.0,22.0,30.24,East,90,0.0,0.0,58,0.00,,,0.02,,2013-04-12 11:52:00,
2013-04-12 08:02:00,35.0,21.0,30.23,ENE,68,0.0,0.0,57,0.00,,,0.02,,2013-04-12 12:02:00,
2013-04-12 08:13:00,35.0,21.0,30.23,ENE,68,0.0,0.0,57,0.00,,,0.02,,2013-04-12 12:13:00,
2013-04-12 08:22:00,35.0,21.0,30.24,NE,45,0.0,0.0,57,0.00,,,0.02,,2013-04-12 12:22:00,
2013-04-12 08:33:00,35.0,21.0,30.23,ENE,68,0.0,0.0,57,0.00,,,0.02,,2013-04-12 12:33:00,
2013-04-12 08:42:00,35.0,21.0,30.23,ENE,68,0.0,0.0,57,0.00,,,0.02,,2013-04-12 12:42:00,
2013-04-12 08:53:00,36.0,23.0,30.23,ENE,68,0.0,0.0,59,0.00,,,0.02,,2013-04-12 12:53:00,
2013-04-12 09:03:00,36.0,23.0,30.22,ENE,68,0.0,0.0,60,0.00,,,0.02,,2013-04-12 13:03:00,
2013-04-12 09:12:00,36.0,23.0,30.22,ENE,68,0.0,0.0,60,0.00,,,0.02,,2013-04-12 13:12:00,
2013-04-12 09:22:00,36.0,24.0,30.21,ENE,68,0.0,0.0,61,0.00,,,0.02,,2013-04-12 13:22:00,
2013-04-12 09:32:00,36.0,24.0,30.20,East,90,0.0,0.0,61,0.00,,,0.02,,2013-04-12 13:32:00,
2013-04-12 09:42:00,36.0,24.0,30.20,East,90,0.0,0.0,61,0.00,,,0.02,,2013-04-12 13:42:00,
2013-04-12 09:53:00,36.0,25.0,30.19,ENE,68,0.0,0.0,64,0.00,,,0.02,,2013-04-12 13:53:00,
2013-04-12 10:03:00,36.0,24.0,30.19,ENE,68,0.0,0.0,62,0.00,,,0.02,,2013-04-12 14:03:00,
2013-04-12 10:13:00,36.0,24.0,30.19,ENE,68,0.0,0.0,62,0.00,,,0.02,,2013-04-12 14:13:00,
2013-04-12 10:23:00,37.0,25.0,30.17,East,90,0.0,0.0,61,0.00,,,0.02,,2013-04-12 14:23:00,
2013-04-12 10:33:00,37.0,24.0,30.18,ENE,68,0.0,0.0,60,0.00,,,0.02,,2013-04-12 14:33:00,
2013-04-12 10:42:00,37.0,24.0,30.18,ENE,68,0.0,0.0,60,0.00,,,0.02,,2013-04-12 14:42:00,
2013-04-12 10:54:00,37.0,24.0,30.19,SE,135,0.0,0.0,60,0.00,,,0.02,,2013-04-12 14:54:00,
2013-04-12 11:03:00,37.0,25.0,30.19,ESE,113,0.0,0.0,62,0.00,,,0.02,,2013-04-12 15:03:00,
2013-04-12 11:12:00,37.0,25.0,30.19,ESE,113,0.0,0.0,62,0.00,,,0.02,,2013-04-12 15:12:00,
2013-04-12 11:22:00,37.0,25.0,30.19,East,90,0.0,0.0,61,0.00,,,0.02,,2013-04-12 15:22:00,
2013-04-12 11:33:00,38.0,26.0,30.18,ENE,68,0.0,0.0,62,0.00,,,0.02,,2013-04-12 15:33:00,
2013-04-12 11:43:00,38.0,26.0,30.18,ENE,68,0.0,0.0,62,0.00,,,0.02,,2013-04-12 15:43:00,
2013-04-12 11:53:00,38.0,27.0,30.15,ESE,113,0.0,0.0,63,0.00,,,0.02,,2013-04-12 15:53:00,
2013-04-12 12:04:00,38.0,27.0,30.14,East,90,0.0,0.0,65,0.00,,,0.02,,2013-04-12 16:04:00,
2013-04-12 12:13:00,38.0,27.0,30.14,East,90,0.0,0.0,65,0.00,,,0.02,,2013-04-12 16:13:00,
2013-04-12 12:23:00,38.0,28.0,30.15,East,90,0.0,0.0,66,0.00,,,0.02,,2013-04-12 16:23:00,
2013-04-12 12:33:00,38.0,28.0,30.15,SE,135,0.0,0.0,66,0.00,,,0.02,,2013-04-12 16:33:00,
2013-04-12 12:42:00,38.0,28.0,30.15,SE,135,0.0,0.0,66,0.00,,,0.02,,2013-04-12 16:42:00,
2013-04-12 12:53:00,38.0,28.0,30.14,East,90,0.0,0.0,68,0.00,,,0.02,,2013-04-12 16:53:00,
2013-04-12 13:03:00,38.0,29.0,30.13,SE,135,0.0,0.0,71,0.00,,,0.02,,2013-04-12 17:03:00,
2013-04-12 13:12:00,38.0,29.0,30.13,SE,135,0.0,0.0,71,0.00,,,0.02,,2013-04-12 17:12:00,
2013-04-12 13:23:00,38.0,30.0,30.12,ESE,113,0.0,0.0,72,0.00,,,0.02,,2013-04-12 17:23:00,
2013-04-12 13:33:00,38.0,30.0,30.12,ESE,113,0.0,0.0,73,0.00,,,0.02,,2013-04-12 17:33:00,
2013-04-12 13:45:00,38.0,30.0,30.12,ESE,113,0.0,0.0,73,0.00,,,0.02,,2013-04-12 17:45:00,
2013-04-12 14:06:00,38.0,30.0,30.12,ESE,113,0.0,0.0,73,0.00,,,0.02,,2013-04-12 18:06:00,
2013-04-12 14:21:00,38.0,30.0,30.13,ESE,113,0.0,0.0,74,0.00,,,0.01,,2013-04-12 18:21:00,
2013-04-12 15:26:00,37.0,31.0,30.11,South,180,0.0,0.0,78,0.00,,,0.01,,2013-04-12 19:26:00,
2013-04-12 15:27:00,36.0,29.0,30.09,SE,135,0.0,0.0,76,0.01,,,0.02,,2013-04-12 19:27:00,
2013-04-12 15:32:00,36.0,29.0,30.07,SE,135,0.0,0.0,77,0.01,,,0.02,,2013-04-12 19:32:00,
2013-04-12 15:43:00,36.0,29.0,30.07,SE,135,0.0,0.0,77,0.01,,,0.02,,2013-04-12 19:43:00,
2013-04-12 15:53:00,36.0,29.0,30.07,ESE,113,0.0,0.0,74,0.01,,,0.02,,2013-04-12 19:53:00,
2013-04-12 16:02:00,35.0,29.0,30.04,ESE,113,0.0,0.0,77,0.01,,,0.02,,2013-04-12 20:02:00,
2013-04-12 16:12:00,35.0,29.0,30.04,ESE,113,0.0,0.0,77,0.01,,,0.02,,2013-04-12 20:12:00,
2013-04-12 16:22:00,35.0,29.0,30.08,SE,135,0.0,0.0,77,0.01,,,0.03,,2013-04-12 20:22:00,
2013-04-12 16:32:00,35.0,27.0,30.07,SE,135,0.0,0.0,73,0.01,,,0.03,,2013-04-12 20:32:00,
2013-04-12 16:42:00,35.0,27.0,30.07,SE,135,0.0,0.0,73,0.01,,,0.03,,2013-04-12 20:42:00,
2013-04-12 16:52:00,35.0,27.0,30.07,SE,135,0.0,0.0,72,0.01,,,0.03,,2013-04-12 20:52:00,
2013-04-12 17:02:00,35.0,27.0,30.06,ESE,113,0.0,0.0,71,0.01,,,0.03,,2013-04-12 21:02:00,
2013-04-12 17:12:00,35.0,27.0,30.06,ESE,113,0.0,0.0,71,0.01,,,0.03,,2013-04-12 21:12:00,
2013-04-12 17:22:00,35.0,26.0,30.06,ESE,113,0.0,0.0,69,0.00,,,0.03,,2013-04-12 21:22:00,
2013-04-12 17:33:00,35.0,26.0,30.06,East,90,0.0,0.0,69,0.00,,,0.03,,2013-04-12 21:33:00,
2013-04-12 17:43:00,35.0,26.0,30.06,East,90,0.0,0.0,69,0.00,,,0.03,,2013-04-12 21:43:00,
2013-04-12 17:53:00,35.0,26.0,30.05,East,90,0.0,0.0,68,0.01,,,0.04,,2013-04-12 21:53:00,
2013-04-12 18:02:00,35.0,25.0,30.05,East,90,0.0,0.0,66,0.01,,,0.04,,2013-04-12 22:02:00,
2013-04-12 18:13:00,35.0,25.0,30.05,East,90,0.0,0.0,66,0.01,,,0.04,,2013-04-12 22:13:00,
2013-04-12 18:22:00,35.0,23.0,30.05,East,90,0.0,0.0,60,0.01,,,0.04,,2013-04-12 22:22:00,
2013-04-12 18:32:00,35.0,20.0,30.04,East,90,0.0,0.0,55,0.01,,,0.04,,2013-04-12 22:32:00,
2013-04-12 18:42:00,35.0,20.0,30.04,East,90,0.0,0.0,55,0.01,,,0.04,,2013-04-12 22:42:00,
2013-04-12 18:52:00,35.0,19.0,30.04,ESE,113,0.0,0.0,51,0.00,,,0.04,,2013-04-12 22:52:00,
2013-04-12 19:04:00,35.0,16.0,30.03,SE,135,0.0,0.0,46,0.00,,,0.04,,2013-04-12 23:04:00,
2013-04-12 19:12:00,35.0,17.0,30.03,ESE,113,0.0,0.0,48,0.00,,,0.05,,2013-04-12 23:12:00,
2013-04-12 19:22:00,35.0,17.0,30.03,ESE,113,0.0,0.0,48,0.00,,,0.05,,2013-04-12 23:22:00,
2013-04-12 19:32:00,35.0,16.0,30.02,East,90,0.0,0.0,46,0.00,,,0.04,,2013-04-12 23:32:00,
2013-04-12 19:42:00,35.0,16.0,30.02,East,90,0.0,0.0,46,0.00,,,0.04,,2013-04-12 23:42:00,
2013-04-12 19:52:00,34.0,13.0,30.01,SE,135,0.0,0.0,42,0.00,,,0.04,,2013-04-12 23:52:00,
2013-04-12 20:02:00,34.0,11.0,30.00,East,90,0.0,0.0,38,0.00,,,0.04,,2013-04-13 00:02:00,
2013-04-12 20:12:00,34.0,11.0,30.00,East,90,0.0,0.0,38,0.00,,,0.04,,2013-04-13 00:12:00,
2013-04-12 20:22:00,35.0,9.0,29.99,East,90,0.0,0.0,33,0.00,,,0.04,,2013-04-13 00:22:00,
2013-04-12 20:32:00,35.0,7.0,29.98,East,90,0.0,0.0,31,0.00,,,0.04,,2013-04-13 00:32:00,
2013-04-12 20:42:00,35.0,7.0,29.98,East,90,0.0,0.0,31,0.00,,,0.04,,2013-04-13 00:42:00,
2013-04-12 20:52:00,34.0,7.0,29.98,East,90,0.0,0.0,31,0.00,,,0.04,,2013-04-13 00:52:00,
2013-04-12 21:02:00,35.0,4.0,29.97,East,90,0.0,0.0,27,0.00,,,0.04,,2013-04-13 01:02:00,
2013-04-12 21:13:00,35.0,4.0,29.97,East,90,0.0,0.0,27,0.00,,,0.04,,2013-04-13 01:13:00,
2013-04-12 21:22:00,35.0,4.0,29.97,East,90,0.0,0.0,26,0.00,,,0.04,,2013-04-13 01:22:00,
2013-04-12 21:32:00,35.0,4.0,29.96,East,90,0.0,0.0,26,0.00,,,0.04,,2013-04-13 01:32:00,
2013-04-12 21:42:00,35.0,4.0,29.96,East,90,0.0,0.0,26,0.00,,,0.04,,2013-04-13 01:42:00,
2013-04-12 21:52:00,35.0,4.0,29.96,East,90,0.0,0.0,26,0.01,,,0.05,,2013-04-13 01:52:00,
2013-04-12 22:02:00,35.0,2.0,29.95,ENE,68,0.0,0.0,24,0.01,,,0.05,,2013-04-13 02:02:00,
2013-04-12 22:12:00,35.0,2.0,29.95,ENE,68,0.0,0.0,24,0.01,,,0.05,,2013-04-13 02:12:00,
2013-04-12 22:23:00,35.0,1.0,29.94,ESE,113,0.0,0.0,23,0.01,,,0.05,,2013-04-13 02:23:00,
2013-04-12 22:32:00,35.0,-1.0,29.93,East,90,0.0,0.0,21,0.01,,,0.05,,2013-04-13 02:32:00,
2013-04-12 22:42:00,35.0,-1.0,29.93,East,90,0.0,0.0,21,0.01,,,0.05,,2013-04-13 02:42:00,
2013-04-12 22:53:00,35.0,-1.0,29.93,East,90,0.0,0.0,21,0.00,,,0.05,,2013-04-13 02:53:00,
2013-04-12 23:02:00,35.0,-1.0,29.91,East,90,0.0,0.0,21,0.00,,,0.05,,2013-04-13 03:02:00,
2013-04-12 23:12:00,35.0,-1.0,29.91,East,90,0.0,0.0,21,0.00,,,0.05,,2013-04-13 03:12:00,
2013-04-12 23:23:00,35.0,-2.0,29.91,East,90,0.0,0.0,20,0.00,,,0.05,,2013-04-13 03:23:00,
2013-04-12 23:33:00,35.0,-2.0,29.90,East,90,0.0,0.0,20,0.00,,,0.05,,2013-04-13 03:33:00,
2013-04-12 23:42:00,35.0,-2.0,29.90,East,90,0.0,0.0,20,0.00,,,0.05,,2013-04-13 03:42:00,
2013-04-12 23:53:00,35.0,-2.0,29.90,East,90,0.0,0.0,20,0.00,,,0.05,,2013-04-13 03:53:00,